Location: Fours
(44.3167°N, 6.7000°E)
Time: 10:40:04
(UTC+00:00)

Cosmos 1844 Rocket - Pass Details

Date: 16 October 2021
Orbit: 826 x 843 km, 71.0° (Epoch: 07 December)

Event Time Altitude Azimuth Distance (km) Brightness Sun altitude
Rises 19:39:29 0° 337° (NNW) 3,376 6.4 -31.3°
Reaches altitude 10° 19:41:59 10° 342° (NNW) 2,438 5.5 -31.7°
Enters shadow 19:44:55 31° 355° (N) 1,427 4.0 -32.2°
